Date,TemperatureHighF,TemperatureAvgF,TemperatureLowF,DewpointHighF,DewpointAvgF,DewpointLowF,HumidityHigh,HumidityAvg,HumidityLow,PressureMaxIn,PressureMinIn,WindSpeedMaxMPH,WindSpeedAvgMPH,GustSpeedMaxMPH,PrecipitationSumIn
2013-1-1,18.0,-0.8,-12.0,-99.9,-99.9,-99.9,0,0,100,0.00,40.00,0,-999,0,0.00
2013-1-2,12.0,-4.3,-17.0,-99.9,-99.9,-99.9,0,0,100,0.00,40.00,0,-999,0,0.00
2013-1-3,11.0,-8.3,-19.0,-99.9,-99.9,-99.9,0,0,100,0.00,40.00,0,-999,0,0.00
2013-1-4,18.0,-7.9,-23.0,-99.9,-99.9,-99.9,0,0,100,0.00,40.00,0,-999,0,0.00
2013-1-5,16.0,-6.2,-21.0,-99.9,-99.9,-99.9,0,0,100,0.00,40.00,0,-999,0,0.00
2013-1-6,20.0,-0.8,-15.0,-99.9,-99.9,-99.9,0,0,100,0.00,40.00,0,-999,0,0.00
2013-1-7,26.0,3.9,-9.0,-99.9,-99.9,-99.9,0,0,100,0.00,40.00,0,-999,0,0.00
2013-1-8,27.0,7.9,-9.0,-99.9,-99.9,-99.9,0,0,100,0.00,40.00,0,-999,0,0.00
2013-1-9,31.0,12.9,-2.0,-99.9,-99.9,-99.9,0,0,100,0.00,40.00,0,-999,0,0.00
2013-1-10,24.0,10.5,-4.0,-99.9,-99.9,-99.9,0,0,100,0.00,40.00,0,-999,0,0.00
2013-1-11,22.0,14.2,-7.0,-99.9,-99.9,-99.9,0,0,100,0.00,40.00,0,-999,0,0.00
2013-1-12,7.0,-4.0,-15.0,-99.9,-99.9,-99.9,0,0,100,0.00,40.00,0,-999,0,0.00
2013-1-13,3.0,-10.5,-23.0,-99.9,-99.9,-99.9,0,0,100,0.00,40.00,0,-999,0,0.00
2013-1-14,7.0,-9.3,-22.0,-99.9,-99.9,-99.9,0,0,100,0.00,40.00,0,-999,0,0.00
2013-1-15,7.0,-6.4,-22.0,-99.9,-99.9,-99.9,0,0,100,0.00,40.00,0,-999,0,0.00
2013-1-16,19.0,0.8,-12.0,-99.9,-99.9,-99.9,0,0,100,0.00,40.00,0,-999,0,0.00
2013-1-17,27.0,5.6,-7.0,-99.9,-99.9,-99.9,0,0,100,0.00,40.00,0,-999,0,0.00
2013-1-18,25.0,6.1,-6.0,-99.9,-99.9,-99.9,0,0,100,0.00,40.00,0,-999,0,0.00
2013-1-19,29.0,10.2,-6.0,-99.9,-99.9,-99.9,0,0,100,0.00,40.00,0,-999,0,0.00
2013-1-20,32.0,6.2,-8.0,-99.9,-99.9,-99.9,0,0,100,0.00,40.00,0,-999,0,0.00
2013-1-21,30.0,10.6,-5.0,-99.9,-99.9,-99.9,0,0,100,0.00,40.00,0,-999,0,0.00
2013-1-22,34.0,12.1,-5.0,-99.9,-99.9,-99.9,0,0,100,0.00,40.00,0,-999,0,0.00
2013-1-23,32.0,14.2,-3.0,-99.9,-99.9,-99.9,0,0,100,0.00,40.00,0,-999,0,0.00
2013-1-24,39.0,18.4,1.0,-99.9,-99.9,-99.9,0,0,100,0.00,40.00,0,-999,0,0.00
2013-1-25,40.0,24.4,14.0,-99.9,-99.9,-99.9,0,0,100,0.00,40.00,0,-999,0,0.01
2013-1-26,35.0,25.2,16.0,-99.9,-99.9,-99.9,0,0,100,0.00,40.00,0,-999,0,0.04
2013-1-27,45.0,27.7,14.0,-99.9,-99.9,-99.9,0,0,100,0.00,40.00,0,-999,0,0.02
2013-1-28,35.0,30.2,21.0,-99.9,-99.9,-99.9,0,0,100,0.00,40.00,0,-999,0,0.05
2013-1-29,22.0,13.9,5.0,-99.9,-99.9,-99.9,0,0,100,0.00,40.00,0,-999,0,0.01
2013-1-30,34.0,19.1,2.0,-99.9,-99.9,-99.9,0,0,100,0.00,40.00,0,-999,0,0.01
2013-1-31,37.0,25.8,11.0,-99.9,-99.9,-99.9,0,0,100,0.00,40.00,0,-999,0,0.00
2013-2-1,31.0,17.1,2.0,-99.9,-99.9,-99.9,0,0,100,0.00,40.00,0,-999,0,0.00
2013-2-2,36.0,19.0,2.0,-99.9,-99.9,-99.9,0,0,100,0.00,40.00,0,-999,0,0.00
2013-2-3,34.0,21.8,5.0,-99.9,-99.9,-99.9,0,0,100,0.00,40.00,0,-999,0,0.00
2013-2-4,36.0,24.0,13.0,-99.9,-99.9,-99.9,0,0,100,0.00,40.00,0,-999,0,0.00
2013-2-5,37.0,22.4,7.0,-99.9,-99.9,-99.9,0,0,100,0.00,40.00,0,-999,0,0.00
2013-2-6,40.0,23.7,5.0,-99.9,-99.9,-99.9,0,0,100,0.00,40.00,0,-999,0,0.00
2013-2-7,34.0,23.0,10.0,-99.9,-99.9,-99.9,0,0,100,0.00,40.00,0,-999,0,0.00
2013-2-8,39.0,23.4,7.0,-99.9,-99.9,-99.9,0,0,100,0.00,40.00,0,-999,0,0.00
2013-2-9,32.0,24.5,18.0,-99.9,-99.9,-99.9,0,0,100,0.00,40.00,0,-999,0,0.02
2013-2-10,27.0,17.8,8.0,-99.9,-99.9,-99.9,0,0,100,0.00,40.00,0,-999,0,0.02
2013-2-11,28.0,15.7,5.0,-99.9,-99.9,-99.9,0,0,100,0.00,40.00,0,-999,0,0.03
2013-2-12,30.0,12.9,2.0,-99.9,-99.9,-99.9,0,0,100,0.00,40.00,0,-999,0,0.01
2013-2-13,29.0,13.5,-3.0,-99.9,-99.9,-99.9,0,0,100,0.00,40.00,0,-999,0,0.00
2013-2-14,35.0,19.2,5.0,-99.9,-99.9,-99.9,0,0,100,0.00,40.00,0,-999,0,0.00
2013-2-15,32.0,19.8,6.0,-99.9,-99.9,-99.9,0,0,100,0.00,40.00,0,-999,0,0.00
2013-2-16,37.0,19.9,2.0,-99.9,-99.9,-99.9,0,0,100,0.00,40.00,0,-999,0,0.00
2013-2-17,42.0,23.8,4.0,-99.9,-99.9,-99.9,0,0,100,0.00,40.00,0,-999,0,0.00
2013-2-18,33.0,21.0,7.0,-99.9,-99.9,-99.9,0,0,100,0.00,40.00,0,-999,0,0.00
2013-2-19,33.0,14.8,-1.0,-99.9,-99.9,-99.9,0,0,100,0.00,40.00,0,-999,0,0.00
2013-2-20,33.0,20.3,12.0,-99.9,-99.9,-99.9,0,0,100,0.00,40.00,0,-999,0,0.06
2013-2-21,33.0,23.4,11.0,-99.9,-99.9,-99.9,0,0,100,0.00,40.00,0,-999,0,0.02
2013-2-22,29.0,16.8,9.0,-99.9,-99.9,-99.9,0,0,100,0.00,40.00,0,-999,0,0.00
2013-2-23,28.0,15.1,-3.0,-99.9,-99.9,-99.9,0,0,100,0.00,40.00,0,-999,0,0.01
2013-2-24,29.0,17.4,4.0,-99.9,-99.9,-99.9,0,0,100,0.00,40.00,0,-999,0,0.02
2013-2-25,38.0,17.8,1.0,-99.9,-99.9,-99.9,0,0,100,0.00,40.00,0,-999,0,0.02
2013-2-26,26.0,16.2,3.0,-99.9,-99.9,-99.9,0,0,100,0.00,40.00,0,-999,0,0.00
2013-2-27,31.0,16.0,5.0,-99.9,-99.9,-99.9,0,0,100,0.00,40.00,0,-999,0,0.01
2013-2-28,36.0,23.0,7.0,-99.9,-99.9,-99.9,0,0,100,0.00,40.00,0,-999,0,0.01
2013-3-1,46.0,32.1,22.0,-99.9,-99.9,-99.9,0,0,100,0.00,40.00,0,-999,0,0.00
2013-3-2,47.0,32.3,21.0,-99.9,-99.9,-99.9,0,0,100,0.00,40.00,0,-999,0,0.00
2013-3-3,52.0,35.8,24.0,-99.9,-99.9,-99.9,0,0,100,0.00,40.00,0,-999,0,0.00
2013-3-4,46.0,36.4,26.0,-99.9,-99.9,-99.9,0,0,100,0.00,40.00,0,-999,0,0.00
2013-3-5,41.0,25.3,9.0,-99.9,-99.9,-99.9,0,0,100,0.00,40.00,0,-999,0,0.00
2013-3-6,52.0,32.9,19.0,-99.9,-99.9,-99.9,0,0,100,0.00,40.00,0,-999,0,0.00
2013-3-7,54.0,34.1,19.0,-99.9,-99.9,-99.9,0,0,100,0.00,40.00,0,-999,0,0.00
2013-3-8,45.0,32.6,25.0,-99.9,-99.9,-99.9,0,0,100,0.00,40.00,0,-999,0,0.00
2013-3-9,29.0,25.8,22.0,-99.9,-99.9,-99.9,0,0,100,0.00,40.00,0,-999,0,0.03
2013-3-10,41.0,27.5,12.0,-99.9,-99.9,-99.9,0,0,100,0.00,40.00,0,-999,0,0.01
2013-3-11,43.0,29.4,15.0,-99.9,-99.9,-99.9,0,0,100,0.00,40.00,0,-999,0,0.00
2013-3-12,53.0,35.9,25.0,-99.9,-99.9,-99.9,0,0,100,0.00,40.00,0,-999,0,0.00
2013-3-13,56.0,39.4,23.0,-99.9,-99.9,-99.9,0,0,100,0.00,40.00,0,-999,0,0.00
2013-3-14,61.0,44.9,31.0,-99.9,-99.9,-99.9,0,0,100,0.00,40.00,0,-999,0,0.00
2013-3-15,63.0,45.7,31.0,-99.9,-99.9,-99.9,0,0,100,0.00,40.00,0,-999,0,0.00
2013-3-16,53.0,36.8,28.0,-99.9,-99.9,-99.9,0,0,100,0.00,40.00,0,-999,0,0.04
2013-3-17,49.0,35.2,21.0,-99.9,-99.9,-99.9,0,0,100,0.00,40.00,0,-999,0,0.05
2013-3-18,45.0,35.0,18.0,-99.9,-99.9,-99.9,0,0,100,0.00,40.00,0,-999,0,0.01
2013-3-19,49.0,34.3,21.0,-99.9,-99.9,-99.9,0,0,100,0.00,40.00,0,-999,0,0.00
2013-3-20,51.0,34.5,21.0,-99.9,-99.9,-99.9,0,0,100,0.00,40.00,0,-999,0,0.00
2013-3-21,49.0,37.0,24.0,-99.9,-99.9,-99.9,0,0,100,0.00,40.00,0,-999,0,0.00
2013-3-22,46.0,31.7,14.0,-99.9,-99.9,-99.9,0,0,100,0.00,40.00,0,-999,0,0.00
2013-3-23,31.0,21.5,13.0,-99.9,-99.9,-99.9,0,0,100,0.00,40.00,0,-999,0,0.00
2013-3-24,35.0,19.1,5.0,-99.9,-99.9,-99.9,0,0,100,0.00,40.00,0,-999,0,0.00
2013-3-25,41.0,22.7,8.0,-99.9,-99.9,-99.9,0,0,100,0.00,40.00,0,-999,0,0.00
2013-3-26,52.0,31.4,13.0,-99.9,-99.9,-99.9,0,0,100,0.00,40.00,0,-999,0,0.00
2013-3-27,56.0,43.0,29.0,-99.9,-99.9,-99.9,0,0,100,0.00,40.00,0,-999,0,0.00
2013-3-28,59.0,44.7,30.0,-99.9,-99.9,-99.9,0,0,100,0.00,40.00,0,-999,0,0.00
2013-3-29,56.0,42.9,29.0,-99.9,-99.9,-99.9,0,0,100,0.00,40.00,0,-999,0,0.00
2013-3-30,59.0,43.3,29.0,-99.9,-99.9,-99.9,0,0,100,0.00,40.00,0,-999,0,0.00
2013-3-31,62.0,45.0,31.0,-99.9,-99.9,-99.9,0,0,100,0.00,40.00,0,-999,0,0.00
2013-4-1,59.0,44.1,31.0,-99.9,-99.9,-99.9,0,0,100,0.00,40.00,0,-999,0,0.00
2013-4-2,52.0,36.5,19.0,-99.9,-99.9,-99.9,0,0,100,0.00,40.00,0,-999,0,0.00
2013-4-3,55.0,40.4,30.0,-99.9,-99.9,-99.9,0,0,100,0.00,40.00,0,-999,0,0.00
2013-4-4,64.0,48.6,29.0,-99.9,-99.9,-99.9,0,0,100,0.00,40.00,0,-999,0,0.00
2013-4-5,60.0,47.8,34.0,-99.9,-99.9,-99.9,0,0,100,0.00,40.00,0,-999,0,0.00
2013-4-6,62.0,45.5,28.0,-99.9,-99.9,-99.9,0,0,100,0.00,40.00,0,-999,0,0.00
2013-4-7,58.0,44.9,23.0,-99.9,-99.9,-99.9,0,0,100,0.00,40.00,0,-999,0,0.00
2013-4-8,54.0,37.6,24.0,-99.9,-99.9,-99.9,0,0,100,0.00,40.00,0,-999,0,0.00
2013-4-9,37.0,29.9,23.0,-99.9,-99.9,-99.9,0,0,100,0.00,40.00,0,-999,0,0.32
2013-4-10,35.0,25.2,17.0,-99.9,-99.9,-99.9,0,0,100,0.00,40.00,0,-999,0,0.15
2013-4-11,48.0,33.1,20.0,-99.9,-99.9,-99.9,0,0,100,0.00,40.00,0,-999,0,0.01
2013-4-12,52.0,39.6,27.0,-99.9,-99.9,-99.9,0,0,100,0.00,40.00,0,-999,0,0.00
2013-4-13,56.0,44.0,29.0,-99.9,-99.9,-99.9,0,0,100,0.00,40.00,0,-999,0,0.00
2013-4-14,53.0,44.7,33.0,-99.9,-99.9,-99.9,0,0,100,0.00,40.00,0,-999,0,0.08
2013-4-15,59.0,48.3,35.0,-99.9,-99.9,-99.9,0,0,100,0.00,40.00,0,-999,0,0.03
2013-4-16,61.0,51.0,41.0,-99.9,-99.9,-99.9,0,0,100,0.00,40.00,0,-999,0,0.00
2013-4-17,47.0,36.3,23.0,-99.9,-99.9,-99.9,0,0,100,0.00,40.00,0,-999,0,0.02
2013-4-18,31.0,24.6,15.0,-99.9,-99.9,-99.9,0,0,100,0.00,40.00,0,-999,0,0.01
2013-4-19,51.0,33.0,16.0,-99.9,-99.9,-99.9,0,0,100,0.00,40.00,0,-999,0,0.00
2013-4-20,47.0,37.9,25.0,-99.9,-99.9,-99.9,0,0,100,0.00,40.00,0,-999,0,0.00
2013-4-21,57.0,41.4,26.0,-99.9,-99.9,-99.9,0,0,100,0.00,40.00,0,-999,0,0.00
2013-4-22,61.0,46.5,29.0,-99.9,-99.9,-99.9,0,0,100,0.00,40.00,0,-999,0,0.00
2013-4-23,46.0,34.9,27.0,-99.9,-99.9,-99.9,0,0,100,0.00,40.00,0,-999,0,0.00
2013-4-24,52.0,35.8,18.0,-99.9,-99.9,-99.9,0,0,100,0.00,40.00,0,-999,0,0.00
2013-4-25,59.0,41.4,24.0,-99.9,-99.9,-99.9,0,0,100,0.00,40.00,0,-999,0,0.00
2013-4-26,56.0,44.8,34.0,-99.9,-99.9,-99.9,0,0,100,0.00,40.00,0,-999,0,0.00
2013-4-27,61.0,45.4,30.0,-99.9,-99.9,-99.9,0,0,100,0.00,40.00,0,-999,0,0.00
2013-4-28,69.0,51.8,35.0,-99.9,-99.9,-99.9,0,0,100,0.00,40.00,0,-999,0,0.00
2013-4-29,70.0,54.8,38.0,-99.9,-99.9,-99.9,0,0,100,0.00,40.00,0,-999,0,0.00
2013-4-30,70.0,56.2,36.0,-99.9,-99.9,-99.9,0,0,100,0.00,40.00,0,-999,0,0.00
2013-5-1,62.0,50.9,31.0,-99.9,-99.9,-99.9,0,0,100,0.00,40.00,0,-999,0,0.00
2013-5-2,51.0,34.0,18.0,-99.9,-99.9,-99.9,0,0,100,0.00,40.00,0,-999,0,0.00
2013-5-3,59.0,40.4,22.0,-99.9,-99.9,-99.9,0,0,100,0.00,40.00,0,-999,0,0.00
2013-5-4,61.0,43.3,22.0,-99.9,-99.9,-99.9,0,0,100,0.00,40.00,0,-999,0,0.00
2013-5-5,59.0,43.5,27.0,-99.9,-99.9,-99.9,0,0,100,0.00,40.00,0,-999,0,0.00
2013-5-6,47.0,42.0,37.0,-99.9,-99.9,-99.9,0,0,100,0.00,40.00,0,-999,0,0.21
2013-5-7,59.0,44.8,33.0,-99.9,-99.9,-99.9,0,0,100,0.00,40.00,0,-999,0,0.05
2013-5-8,54.0,43.3,33.0,-99.9,-99.9,-99.9,0,0,100,0.00,40.00,0,-999,0,0.10
2013-5-9,50.0,41.7,35.0,-99.9,-99.9,-99.9,0,0,100,0.00,40.00,0,-999,0,0.01
2013-5-10,55.0,42.7,31.0,-99.9,-99.9,-99.9,0,0,100,0.00,40.00,0,-999,0,0.00
2013-5-11,61.0,46.8,34.0,-99.9,-99.9,-99.9,0,0,100,0.00,40.00,0,-999,0,0.00
2013-5-12,67.0,50.3,32.0,-99.9,-99.9,-99.9,0,0,100,0.00,40.00,0,-999,0,0.00
2013-5-13,73.0,55.7,41.0,-99.9,-99.9,-99.9,0,0,100,0.00,40.00,0,-999,0,0.00
2013-5-14,68.0,54.8,43.0,-99.9,-99.9,-99.9,0,0,100,0.00,40.00,0,-999,0,0.00
2013-5-15,68.0,53.6,46.0,-99.9,-99.9,-99.9,0,0,100,0.00,40.00,0,-999,0,0.00
2013-5-16,69.0,52.2,33.0,-99.9,-99.9,-99.9,0,0,100,0.00,40.00,0,-999,0,0.00
2013-5-17,71.0,56.0,40.0,-99.9,-99.9,-99.9,0,0,100,0.00,40.00,0,-999,0,0.00
2013-5-18,63.0,51.0,38.0,-99.9,-99.9,-99.9,0,0,100,0.00,40.00,0,-999,0,0.00
2013-5-19,55.0,43.2,33.0,-99.9,-99.9,-99.9,0,0,100,0.00,40.00,0,-999,0,0.00
2013-5-20,56.0,43.4,29.0,-99.9,-99.9,-99.9,0,0,100,0.00,40.00,0,-999,0,0.00
2013-5-21,67.0,52.5,34.0,-99.9,-99.9,-99.9,0,0,100,0.00,40.00,0,-999,0,0.00
2013-5-22,71.0,54.1,36.0,-99.9,-99.9,-99.9,0,0,100,0.00,40.00,0,-999,0,0.00
2013-5-23,74.0,56.1,38.0,-99.9,-99.9,-99.9,0,0,100,0.00,40.00,0,-999,0,0.00
2013-5-24,71.0,55.3,34.0,-99.9,-99.9,-99.9,0,0,100,0.00,40.00,0,-999,0,0.00
2013-5-25,73.0,56.9,39.0,-99.9,-99.9,-99.9,0,0,100,0.00,40.00,0,-999,0,0.00
2013-5-26,72.0,56.9,41.0,-99.9,-99.9,-99.9,0,0,100,0.00,40.00,0,-999,0,0.00
2013-5-27,70.0,54.8,38.0,-99.9,-99.9,-99.9,0,0,100,0.00,40.00,0,-999,0,0.00
2013-5-28,70.0,53.7,33.0,-99.9,-99.9,-99.9,0,0,100,0.00,40.00,0,-999,0,0.00
2013-5-29,61.0,51.0,39.0,-99.9,-99.9,-99.9,0,0,100,0.00,40.00,0,-999,0,0.00
2013-5-30,46.0,42.4,39.0,-99.9,-99.9,-99.9,0,0,100,0.00,40.00,0,-999,0,0.00
2013-5-31,66.0,59.5,43.0,-99.9,-99.9,-99.9,0,0,100,0.00,40.00,0,-999,0,0.00
2013-6-1,70.0,51.0,33.0,-99.9,-99.9,-99.9,0,0,100,0.00,40.00,0,-999,0,0.00
2013-6-2,76.0,54.3,33.0,-99.9,-99.9,-99.9,0,0,100,0.00,40.00,0,-999,0,0.00
2013-6-3,75.0,56.9,39.0,-99.9,-99.9,-99.9,0,0,100,0.00,40.00,0,-999,0,0.00
2013-6-4,70.0,56.4,41.0,-99.9,-99.9,-99.9,0,0,100,0.00,40.00,0,-999,0,0.07
2013-6-5,75.0,59.5,41.0,-99.9,-99.9,-99.9,0,0,100,0.00,40.00,0,-999,0,0.07
2013-6-6,70.0,56.1,44.0,-99.9,-99.9,-99.9,0,0,100,0.00,40.00,0,-999,0,0.00
2013-6-7,69.0,53.8,41.0,-99.9,-99.9,-99.9,0,0,100,0.00,40.00,0,-999,0,0.00
2013-6-8,77.0,60.8,45.0,-99.9,-99.9,-99.9,0,0,100,0.00,40.00,0,-999,0,0.00
2013-6-9,82.0,63.1,47.0,-99.9,-99.9,-99.9,0,0,100,0.00,40.00,0,-999,0,0.00
2013-6-10,85.0,67.9,50.0,-99.9,-99.9,-99.9,0,0,100,0.00,40.00,0,-999,0,0.00
2013-6-11,80.0,65.3,47.0,-99.9,-99.9,-99.9,0,0,100,0.00,40.00,0,-999,0,0.00
2013-6-12,80.0,64.2,46.0,-99.9,-99.9,-99.9,0,0,100,0.00,40.00,0,-999,0,0.00
2013-6-13,81.0,65.0,50.0,-99.9,-99.9,-99.9,0,0,100,0.00,40.00,0,-999,0,0.00
2013-6-14,79.0,66.6,54.0,-99.9,-99.9,-99.9,0,0,100,0.00,40.00,0,-999,0,0.00
2013-6-15,77.0,60.1,41.0,-99.9,-99.9,-99.9,0,0,100,0.00,40.00,0,-999,0,0.00
2013-6-16,69.0,58.2,49.0,-99.9,-99.9,-99.9,0,0,100,0.00,40.00,0,-999,0,0.00
2013-6-17,72.0,55.1,43.0,-99.9,-99.9,-99.9,0,0,100,0.00,40.00,0,-999,0,0.01
2013-6-18,77.0,58.2,43.0,-99.9,-99.9,-99.9,0,0,100,0.00,40.00,0,-999,0,0.01
2013-6-19,77.0,60.9,38.0,-99.9,-99.9,-99.9,0,0,100,0.00,40.00,0,-999,0,0.00
2013-6-20,76.0,55.5,40.0,-99.9,-99.9,-99.9,0,0,100,0.00,40.00,0,-999,0,0.00
2013-6-22,73.0,66.9,57.0,-99.9,-99.9,-99.9,0,0,100,0.00,40.00,0,-999,0,0.00
2013-6-23,78.0,60.3,44.0,-99.9,-99.9,-99.9,0,0,100,0.00,40.00,0,-999,0,0.00
2013-6-24,74.0,61.1,43.0,-99.9,-99.9,-99.9,0,0,100,0.00,40.00,0,-999,0,0.00
2013-6-25,79.0,64.4,42.0,-99.9,-99.9,-99.9,0,0,100,0.00,40.00,0,-999,0,0.00
2013-6-26,83.0,66.5,49.0,-99.9,-99.9,-99.9,0,0,100,0.00,40.00,0,-999,0,0.00
2013-6-27,87.0,69.1,54.0,-99.9,-99.9,-99.9,0,0,100,0.00,40.00,0,-999,0,0.00
2013-6-28,79.0,64.0,53.0,-99.9,-99.9,-99.9,0,0,100,0.00,40.00,0,-999,0,0.00
2013-6-29,77.0,60.8,50.0,-99.9,-99.9,-99.9,0,0,100,0.00,40.00,0,-999,0,0.02
2013-6-30,75.0,58.0,47.0,-99.9,-99.9,-99.9,0,0,100,0.00,40.00,0,-999,0,0.06
2013-7-1,76.0,58.8,42.0,-99.9,-99.9,-99.9,0,0,100,0.00,40.00,0,-999,0,0.08
2013-7-2,78.0,58.3,46.0,-99.9,-99.9,-99.9,0,0,100,0.00,40.00,0,-999,0,0.08
2013-7-3,72.0,58.2,42.0,-99.9,-99.9,-99.9,0,0,100,0.00,40.00,0,-999,0,0.00
2013-7-4,80.0,64.2,53.0,-99.9,-99.9,-99.9,0,0,100,0.00,40.00,0,-999,0,0.02
2013-7-5,73.0,59.5,52.0,-99.9,-99.9,-99.9,0,0,100,0.00,40.00,0,-999,0,0.15
2013-7-6,74.0,58.5,49.0,-99.9,-99.9,-99.9,0,0,100,0.00,40.00,0,-999,0,0.02
2013-7-7,82.0,63.6,53.0,-99.9,-99.9,-99.9,0,0,100,0.00,40.00,0,-999,0,0.10
2013-7-8,72.0,60.7,53.0,-99.9,-99.9,-99.9,0,0,100,0.00,40.00,0,-999,0,0.10
2013-7-9,79.0,65.7,55.0,-99.9,-99.9,-99.9,0,0,100,0.00,40.00,0,-999,0,0.01
2013-7-10,77.0,63.5,54.0,-99.9,-99.9,-99.9,0,0,100,0.00,40.00,0,-999,0,0.02
2013-7-11,77.0,63.4,50.0,-99.9,-99.9,-99.9,0,0,100,0.00,40.00,0,-999,0,0.02
2013-7-12,74.0,63.2,56.0,-99.9,-99.9,-99.9,0,0,100,0.00,40.00,0,-999,0,0.17
2013-7-13,74.0,61.1,51.0,-99.9,-99.9,-99.9,0,0,100,0.00,40.00,0,-999,0,0.74
2013-7-14,79.0,61.2,54.0,-99.9,-99.9,-99.9,0,0,100,0.00,40.00,0,-999,0,0.55
2013-7-15,68.0,58.7,52.0,-99.9,-99.9,-99.9,0,0,100,0.00,40.00,0,-999,0,0.03
2013-7-16,73.0,59.1,47.0,-99.9,-99.9,-99.9,0,0,100,0.00,40.00,0,-999,0,0.01
2013-7-17,79.0,60.9,46.0,-99.9,-99.9,-99.9,0,0,100,0.00,40.00,0,-999,0,0.01
2013-7-18,81.0,64.0,52.0,-99.9,-99.9,-99.9,0,0,100,0.00,40.00,0,-999,0,0.21
2013-7-19,75.0,60.6,53.0,-99.9,-99.9,-99.9,0,0,100,0.00,40.00,0,-999,0,0.32
2013-7-20,79.0,63.2,53.0,-99.9,-99.9,-99.9,0,0,100,0.00,40.00,0,-999,0,0.03
2013-7-21,81.0,63.8,52.0,-99.9,-99.9,-99.9,0,0,100,0.00,40.00,0,-999,0,0.02
2013-7-22,79.0,66.4,55.0,-99.9,-99.9,-99.9,0,0,100,0.00,40.00,0,-999,0,0.01
2013-7-23,82.0,65.5,51.0,-99.9,-99.9,-99.9,0,0,100,0.00,40.00,0,-999,0,0.01
2013-7-24,74.0,62.7,54.0,-99.9,-99.9,-99.9,0,0,100,0.00,40.00,0,-999,0,0.01
2013-7-25,79.0,62.1,50.0,-99.9,-99.9,-99.9,0,0,100,0.00,40.00,0,-999,0,0.01
2013-7-26,74.0,61.5,48.0,-99.9,-99.9,-99.9,0,0,100,0.00,40.00,0,-999,0,0.01
2013-7-27,70.0,57.3,47.0,-99.9,-99.9,-99.9,0,0,100,0.00,40.00,0,-999,0,0.01
2013-7-28,67.0,57.2,52.0,-99.9,-99.9,-99.9,0,0,100,0.00,40.00,0,-999,0,0.01
2013-7-29,69.0,57.7,50.0,-99.9,-99.9,-99.9,0,0,100,0.00,40.00,0,-999,0,0.01
2013-7-30,79.0,61.4,48.0,-99.9,-99.9,-99.9,0,0,100,0.00,40.00,0,-999,0,0.01
2013-7-31,86.0,64.6,51.0,-99.9,-99.9,-99.9,0,0,100,0.00,40.00,0,-999,0,0.01
2013-8-1,71.0,63.2,52.0,-99.9,-99.9,-99.9,0,0,100,0.00,40.00,0,-999,0,0.00
2013-8-2,74.0,61.2,54.0,-99.9,-99.9,-99.9,0,0,100,0.00,40.00,0,-999,0,0.01
2013-8-3,78.0,62.5,55.0,-99.9,-99.9,-99.9,0,0,100,0.00,40.00,0,-999,0,0.00
2013-8-4,75.0,60.9,52.0,-99.9,-99.9,-99.9,0,0,100,0.00,40.00,0,-999,0,0.01
2013-8-5,71.0,59.8,53.0,-99.9,-99.9,-99.9,0,0,100,0.00,40.00,0,-999,0,0.01
2013-8-6,70.0,59.6,52.0,-99.9,-99.9,-99.9,0,0,100,0.00,40.00,0,-999,0,0.00
2013-8-7,61.0,52.3,48.0,-99.9,-99.9,-99.9,0,0,100,0.00,40.00,0,-999,0,0.01
2013-8-8,70.0,55.2,48.0,-99.9,-99.9,-99.9,0,0,100,0.00,40.00,0,-999,0,0.01
2013-8-9,68.0,54.0,44.0,-99.9,-99.9,-99.9,0,0,100,0.00,40.00,0,-999,0,0.02
2013-8-10,71.0,53.4,45.0,-99.9,-99.9,-99.9,0,0,100,0.00,40.00,0,-999,0,0.31
2013-8-11,73.0,55.9,43.0,-99.9,-99.9,-99.9,0,0,100,0.00,40.00,0,-999,0,0.31
2013-8-12,68.0,55.4,45.0,-99.9,-99.9,-99.9,0,0,100,0.00,40.00,0,-999,0,0.05
2013-8-13,67.0,56.9,47.0,-99.9,-99.9,-99.9,0,0,100,0.00,40.00,0,-999,0,0.01
2013-8-14,75.0,58.8,47.0,-99.9,-99.9,-99.9,0,0,100,0.00,40.00,0,-999,0,0.00
2013-8-15,77.0,56.8,45.0,-99.9,-99.9,-99.9,0,0,100,0.00,40.00,0,-999,0,0.00
2013-8-16,80.0,61.5,45.0,-99.9,-99.9,-99.9,0,0,100,0.00,40.00,0,-999,0,0.00
2013-8-17,80.0,63.3,51.0,-99.9,-99.9,-99.9,0,0,100,0.00,40.00,0,-999,0,0.00
2013-8-18,73.0,60.1,47.0,-99.9,-99.9,-99.9,0,0,100,0.00,40.00,0,-999,0,0.01
2013-8-19,79.0,63.0,52.0,-99.9,-99.9,-99.9,0,0,100,0.00,40.00,0,-999,0,0.01
2013-8-20,80.0,62.9,50.0,-99.9,-99.9,-99.9,0,0,100,0.00,40.00,0,-999,0,0.00
2013-8-21,77.0,62.2,53.0,-99.9,-99.9,-99.9,0,0,100,0.00,40.00,0,-999,0,0.05
2013-8-22,72.0,60.5,52.0,-99.9,-99.9,-99.9,0,0,100,0.00,40.00,0,-999,0,0.05
2013-8-23,77.0,62.0,52.0,-99.9,-99.9,-99.9,0,0,100,0.00,40.00,0,-999,0,0.02
2013-8-24,70.0,60.4,55.0,-99.9,-99.9,-99.9,0,0,100,0.00,40.00,0,-999,0,0.03
2013-8-25,68.0,57.7,52.0,-99.9,-99.9,-99.9,0,0,100,0.00,40.00,0,-999,0,0.39
2013-8-26,76.0,61.1,51.0,-99.9,-99.9,-99.9,0,0,100,0.00,40.00,0,-999,0,0.05
2013-8-27,74.0,58.0,50.0,-99.9,-99.9,-99.9,0,0,100,0.00,40.00,0,-999,0,0.01
2013-8-28,78.0,69.1,56.0,-99.9,-99.9,-99.9,0,0,100,0.00,40.00,0,-999,0,0.00
2013-8-29,81.0,63.8,52.0,-99.9,-99.9,-99.9,0,0,100,0.00,40.00,0,-999,0,0.00
2013-8-30,80.0,66.0,56.0,-99.9,-99.9,-99.9,0,0,100,0.00,40.00,0,-999,0,0.00
2013-8-31,78.0,65.7,58.0,-99.9,-99.9,-99.9,0,0,100,0.00,40.00,0,-999,0,0.00
2013-9-1,76.0,62.3,48.0,-99.9,-99.9,-99.9,0,0,100,0.00,40.00,0,-999,0,0.03
2013-9-2,71.0,58.3,49.0,-99.9,-99.9,-99.9,0,0,100,0.00,40.00,0,-999,0,0.31
2013-9-3,75.0,61.4,51.0,-99.9,-99.9,-99.9,0,0,100,0.00,40.00,0,-999,0,0.00
2013-9-4,79.0,62.3,49.0,-99.9,-99.9,-99.9,0,0,100,0.00,40.00,0,-999,0,0.00
2013-9-5,80.0,64.6,51.0,-99.9,-99.9,-99.9,0,0,100,0.00,40.00,0,-999,0,0.00
2013-9-6,78.0,63.2,52.0,-99.9,-99.9,-99.9,0,0,100,0.00,40.00,0,-999,0,0.00
2013-9-7,78.0,63.2,50.0,-99.9,-99.9,-99.9,0,0,100,0.00,40.00,0,-999,0,0.01
2013-9-8,75.0,62.1,52.0,-99.9,-99.9,-99.9,0,0,100,0.00,40.00,0,-999,0,0.01
2013-9-9,73.0,58.1,51.0,-99.9,-99.9,-99.9,0,0,100,0.00,40.00,0,-999,0,0.03
2013-9-10,63.0,53.3,43.0,-99.9,-99.9,-99.9,0,0,100,0.00,40.00,0,-999,0,0.23
2013-9-11,64.0,55.7,51.0,-99.9,-99.9,-99.9,0,0,100,0.00,40.00,0,-999,0,0.71
2013-9-12,65.0,54.5,47.0,-99.9,-99.9,-99.9,0,0,100,0.00,40.00,0,-999,0,0.16
2013-9-13,61.0,54.7,49.0,-99.9,-99.9,-99.9,0,0,100,0.00,40.00,0,-999,0,0.37
2013-9-14,63.0,52.7,48.0,-99.9,-99.9,-99.9,0,0,100,0.00,40.00,0,-999,0,0.11
2013-9-15,64.0,52.8,44.0,-99.9,-99.9,-99.9,0,0,100,0.00,40.00,0,-999,0,0.05
2013-9-16,64.0,51.1,42.0,-99.9,-99.9,-99.9,0,0,100,0.00,40.00,0,-999,0,0.48
2013-9-17,66.0,54.3,43.0,-99.9,-99.9,-99.9,0,0,100,0.00,40.00,0,-999,0,0.14
2013-9-18,53.0,50.8,47.0,-99.9,-99.9,-99.9,0,0,100,0.00,40.00,0,-999,0,0.38
2013-9-19,63.0,51.1,40.0,-99.9,-99.9,-99.9,0,0,100,0.00,40.00,0,-999,0,0.27
2013-9-20,65.0,51.2,40.0,-99.9,-99.9,-99.9,0,0,100,0.00,40.00,0,-999,0,0.01
2013-9-21,70.0,53.7,40.0,-99.9,-99.9,-99.9,0,0,100,0.00,40.00,0,-999,0,0.00
2013-9-22,57.0,48.2,39.0,-99.9,-99.9,-99.9,0,0,100,0.00,40.00,0,-999,0,0.80
2013-9-23,58.0,46.5,37.0,-99.9,-99.9,-99.9,0,0,100,0.00,40.00,0,-999,0,0.36
2013-9-24,61.0,46.0,32.0,-99.9,-99.9,-99.9,0,0,100,0.00,40.00,0,-999,0,0.00
2013-9-25,66.0,50.4,32.0,-99.9,-99.9,-99.9,0,0,100,0.00,40.00,0,-999,0,0.00
2013-9-26,67.0,56.8,47.0,-99.9,-99.9,-99.9,0,0,100,0.00,40.00,0,-999,0,0.00
2013-9-27,56.0,45.0,33.0,-99.9,-99.9,-99.9,0,0,100,0.00,40.00,0,-999,0,0.01
2013-9-28,56.0,39.1,25.0,-99.9,-99.9,-99.9,0,0,100,0.00,40.00,0,-999,0,0.01
2013-9-29,63.0,45.6,29.0,-99.9,-99.9,-99.9,0,0,100,0.00,40.00,0,-999,0,0.00
2013-9-30,67.0,52.0,38.0,-99.9,-99.9,-99.9,0,0,100,0.00,40.00,0,-999,0,0.00
2013-10-1,69.0,59.4,52.0,-99.9,-99.9,-99.9,0,0,100,0.00,40.00,0,-999,0,0.00
2013-10-2,68.0,53.1,37.0,-99.9,-99.9,-99.9,0,0,100,0.00,40.00,0,-999,0,0.00
2013-10-3,63.0,47.6,29.0,-99.9,-99.9,-99.9,0,0,100,0.00,40.00,0,-999,0,0.00
2013-10-4,54.0,41.9,33.0,-99.9,-99.9,-99.9,0,0,100,0.00,40.00,0,-999,0,0.00
2013-10-5,54.0,38.3,25.0,-99.9,-99.9,-99.9,0,0,100,0.00,40.00,0,-999,0,0.00
2013-10-6,60.0,40.8,23.0,-99.9,-99.9,-99.9,0,0,100,0.00,40.00,0,-999,0,0.00
2013-10-7,63.0,45.2,27.0,-99.9,-99.9,-99.9,0,0,100,0.00,40.00,0,-999,0,0.00
2013-10-8,64.0,47.3,34.0,-99.9,-99.9,-99.9,0,0,100,0.00,40.00,0,-999,0,0.00
2013-10-9,60.0,39.3,26.0,-99.9,-99.9,-99.9,0,0,100,0.00,40.00,0,-999,0,0.00
2013-10-10,20.0,20.0,20.0,-99.9,-99.9,-99.9,0,0,100,0.00,40.00,0,-999,0,0.09
2013-10-11,21.0,20.1,20.0,-99.9,-99.9,-99.9,0,0,100,0.00,40.00,0,-999,0,0.07
2013-10-12,20.0,20.0,20.0,-99.9,-99.9,-99.9,0,0,100,0.00,40.00,0,-999,0,0.04
2013-10-15,20.0,20.0,20.0,-99.9,-99.9,-99.9,0,0,100,0.00,40.00,0,-999,0,0.01
2013-10-17,19.0,19.0,19.0,-99.9,-99.9,-99.9,0,0,100,0.00,40.00,0,-999,0,0.01
2013-10-18,19.0,19.0,19.0,-99.9,-99.9,-99.9,0,0,100,0.00,40.00,0,-999,0,0.00